Regional Weather Roundup
Issued by NWS Green Bay, WI

Home | Current Version | Previous Version | Text Only | Print | Product List | Glossary On
Versions: 1 2 3 4 5 6 7 8 9 10 11 12 13 14 15 16 17 18 19 20 21 22 23 24 25 26 27 28 29 30 31 32 33 34 35 36 37 38 39 40 41 42 43 44 45 46 47 48 49 50
000
ASUS43 KGRB 231710
RWRGRB

NORTH-CENTRAL AND NORTHEAST WISCONSIN REGIONAL WEATHER ROUNDUP
NATIONAL WEATHER SERVICE GREEN BAY WI
1200 PM CDT WED APR 23 2014

WIZ005-009-010>012-018-019-231800-
NORTH CENTRAL WISCONSIN

CITY           SKY/WX    TMP DP  RH WIND       PRES   REMARKS
IRONWOOD       PTSUNNY   48  23  37 E5        30.10S
MANITOWISH WTR CLOUDY    46  23  41 W5        30.13S
ARBOR VITAE    PTSUNNY   52  23  33 SW6       30.14R
EAGLE RIVER    PTSUNNY   47  18  31 NE3       30.13R
LAND O LAKES   MOSUNNY   47  20  33 E3        30.14R
RHINELANDER    CLOUDY    46  22  38 CALM      30.15R
PHILLIPS       CLOUDY    47  25  42 SE8       30.13S
ANTIGO         PTSUNNY   45  22  40 SE7       30.16S
TOMAHAWK       MOSUNNY   48  22  36 NE5       30.14F
MERRILL        MOSUNNY   49  26  41 E5        30.15S
$$

WIZ013-073-231800-
NORTHEAST WISCONSIN

CITY           SKY/WX    TMP DP  RH WIND       PRES   REMARKS
IRON MOUNTAIN  SUNNY     48  17  29 VRB5      30.14F
MARINETTE      SUNNY     43  18  36 SE12      30.19F
OCONTO         MOSUNNY   43  18  37 E7        30.20R
$$

WIZ017-030-035>037-045-231800-
CENTRAL WISCONSIN

CITY           SKY/WX    TMP DP  RH WIND       PRES   REMARKS
MEDFORD        PTSUNNY   45  27  48 SE5       30.15S
WAUSAU         MOSUNNY   47  23  38 S7        30.14S
MOSINEE        SUNNY     46  25  42 SE8       30.17R
MARSHFIELD     CLOUDY    47  25  42 E8        30.15R
WISC RAPIDS    CLOUDY    49  20  31 SE6       30.17S
STEVENS POINT  PTSUNNY   45  23  42 E8        30.17R
WAUPACA        NOT AVBL
SHAWANO        PTSUNNY   47  24  41 NE7       30.19S
CLINTONVILLE   PTSUNNY   46  21  36 NE7       30.18F
$$

WIZ038-039-048-051-231800-
FOX VALLEY

CITY           SKY/WX    TMP DP  RH WIND       PRES   REMARKS
NWS GREEN BAY  PTSUNNY   45  22  40 NE9       30.20R
APPLETON       MOSUNNY   45  25  45 E7        30.18F
OSHKOSH        MOSUNNY   44  25  47 MISG      30.18F
FOND DU LAC    MOSUNNY   48  28  46 NE7       30.17S
$$

WIZ022-050-052-231800-
EAST CENTRAL WISCONSIN

CITY           SKY/WX    TMP DP  RH WIND       PRES   REMARKS
STURGEON BAY   MOSUNNY   43  19  39 N7        30.20S
MANITOWOC      MOSUNNY   46  22  38 NE7       30.20R
SHEBOYGAN      MOSUNNY   44  25  47 MISG      30.18F
$$

LMZ563-521-522-541>543-231800-
LAKESHORE

STATION/POSITION TIME  TEMP    WIND        PRES    VSBY  WAVE
                       AIR SEA DIR/SP/G                  HT/PER
                 (UTC) (F)     (DEG/KT/KT) (MB)    (MI)  (FT/S)
SHEBOYGAN LKSHOR 1700   36      40/  9/ 10 1023.4R
KEWAUNEE LKSHORE 1700   39      60/  5/  8 1023.3R
NORTHPORT PIER   1700   36     320/  2/  3 1022.7R
SISTER BAY LKSHO 1700   41     360/ 12/ 13   N/A
MENOMINEE LKSHOR 1700   36      90/  6/  8 1023.1S
$$



USA.gov is the U.S. government's official web portal to all federal, state and local government web resources and services.